This demonstration page uses our WeatherBlox Daily Observations layout. Learn more.

Hourly Observations for January 11, 2019

Temp ( °F °C ) Dew Point ( °F °C ) Humidity (%) Winds ( mph kmh ) Pressure ( in mb ) Visibility ( mi km ) Precip ( " mm )
12:15 am 00:15 Clear 30 -1 19 -7 64 64 NW 14 22 30.24 1024 10 16.09344 0 0
12:35 am 00:35 Clear 28 -2 19 -7 69 69 NNW 8 13 30.24 1024 10 16.09344 0 0
12:55 am 00:55 Clear 30 -1 18 -8 59 59 N 7 11 30.24 1024 10 16.09344 0 0
1:15 am 01:15 Clear 28 -2 18 -8 64 64 N 6 9 30.24 1024 10 16.09344 0 0
1:35 am 01:35 Clear 28 -2 18 -8 64 64 NNW 6 9 30.27 1025 10 16.09344 0 0
1:55 am 01:55 Clear 28 -2 18 -8 64 64 NNW 9 15 30.27 1025 10 16.09344 0 0
2:15 am 02:15 Clear 28 -2 18 -8 64 64 NNW 12 19 30.27 1025 10 16.09344 0 0
2:35 am 02:35 Clear 28 -2 18 -8 64 64 NW 13 20 30.27 1025 10 16.09344 0 0
2:55 am 02:55 Clear 28 -2 18 -8 64 64 NW 14 22 30.27 1025 10 16.09344 0 0
3:15 am 03:15 Clear 28 -2 18 -8 64 64 NNW 8 13 30.27 1025 10 16.09344 0 0
3:35 am 03:35 Clear 28 -2 18 -8 64 64 NNW 10 17 30.27 1025 10 16.09344 0 0
3:55 am 03:55 Clear 28 -2 18 -8 64 64 NNW 12 19 30.27 1025 10 16.09344 0 0
4:15 am 04:15 Clear 28 -2 18 -8 64 64 NNW 9 15 30.3 1026 10 16.09344 0 0
4:35 am 04:35 Partly Cloudy 28 -2 18 -8 64 64 NNW 10 17 30.3 1026 10 16.09344 0 0
4:55 am 04:55 Partly Cloudy 28 -2 18 -8 64 64 NNW 9 15 30.3 1026 10 16.09344 0 0
5:15 am 05:15 Clear 28 -2 18 -8 64 64 N 5 7 30.3 1026 10 16.09344 0 0
5:35 am 05:35 Partly Cloudy 28 -2 18 -8 64 64 NNW 6 9 30.3 1026 10 16.09344 0 0
5:55 am 05:55 Partly Cloudy 27 -3 18 -8 69 69 NW 7 11 30.3 1026 10 16.09344 0 0
6:15 am 06:15 Clear 27 -3 18 -8 69 69 NW 8 13 30.33 1027 10 16.09344 0 0
6:35 am 06:35 Clear 27 -3 19 -7 74 74 NW 9 15 30.33 1027 10 16.09344 0 0
6:55 am 06:55 Clear 27 -3 19 -7 74 74 NW 12 19 30.33 1027 10 16.09344 0 0
7:15 am 07:15 Clear 27 -3 19 -7 74 74 NNW 12 19 30.33 1027 10 16.09344 0 0
7:35 am 07:35 Sunny 28 -2 19 -7 69 69 NW 10 17 30.33 1027 10 16.09344 0 0
7:55 am 07:55 Sunny 28 -2 19 -7 69 69 NW 12 19 30.36 1028 10 16.09344 0 0
8:15 am 08:15 Sunny 28 -2 19 -7 69 69 NW 12 19 30.36 1028 10 16.09344 0 0
8:35 am 08:35 Sunny 30 -1 19 -7 64 64 NNW 14 22 30.36 1028 10 16.09344 0 0
8:55 am 08:55 Sunny 30 -1 18 -8 59 59 NNW 12 19 30.39 1029 10 16.09344 0 0
9:15 am 09:15 Sunny 30 -1 18 -8 59 59 NNW 20 31 30.39 1029 10 16.09344 0 0
9:35 am 09:35 Sunny 32 0 18 -8 55 55 NW 16 26 30.39 1029 10 16.09344 0 0
9:55 am 09:55 Sunny 32 0 18 -8 55 55 NNW 20 31 30.42 1030 10 16.09344 0 0
10:15 am 10:15 Sunny 32 0 19 -7 60 60 NW 22 35 30.42 1030 10 16.09344 0 0
10:35 am 10:35 Sunny 32 0 18 -8 55 55 NNW 14 22 30.42 1030 10 16.09344 0 0
10:55 am 10:55 Sunny 32 0 19 -7 60 60 NW 15 24 30.42 1030 10 16.09344 0 0
11:15 am 11:15 Sunny 32 0 18 -8 55 55 NNW 20 31 30.42 1030 10 16.09344 0 0
11:35 am 11:35 Sunny 32 0 18 -8 55 55 NNW 14 22 30.42 1030 10 16.09344 0 0
11:55 am 11:55 Sunny 34 1 19 -7 56 56 NNW 15 24 30.39 1029 10 16.09344 0 0
12:15 pm 12:15 Sunny 34 1 18 -8 51 51 NNW 18 30 30.39 1029 10 16.09344 0 0
12:35 pm 12:35 Sunny 34 1 18 -8 51 51 N 12 19 30.39 1029 10 16.09344 0 0
12:55 pm 12:55 Sunny 36 2 18 -8 48 48 NNW 13 20 30.39 1029 10 16.09344 0 0
1:15 pm 13:15 Sunny 36 2 18 -8 48 48 NNW 14 22 30.39 1029 10 16.09344 0 0
1:35 pm 13:35 Sunny 36 2 18 -8 48 48 N 16 26 30.39 1029 10 16.09344 0 0
1:55 pm 13:55 Sunny 36 2 16 -9 44 44 NNW 12 19 30.36 1028 10 16.09344 0 0
2:15 pm 14:15 Sunny 36 2 18 -8 48 48 NNW 15 24 30.36 1028 10 16.09344 0 0
2:35 pm 14:35 Sunny 36 2 18 -8 48 48 NNW 8 13 30.36 1028 10 16.09344 0 0
2:55 pm 14:55 Sunny 36 2 18 -8 48 48 NNW 12 19 30.36 1028 10 16.09344 0 0
3:15 pm 15:15 Sunny 36 2 18 -8 48 48 N 13 20 30.39 1029 10 16.09344 0 0
3:35 pm 15:35 Sunny 36 2 18 -8 48 48 NNW 9 15 30.39 1029 10 16.09344 0 0
3:55 pm 15:55 Sunny 36 2 18 -8 48 48 N 8 13 30.39 1029 10 16.09344 0 0
4:15 pm 16:15 Sunny 36 2 18 -8 48 48 undefined N/A 30.39 1029 10 16.09344 0 0
4:35 pm 16:35 Sunny 36 2 18 -8 48 48 N 12 19 30.39 1029 10 16.09344 0 0
4:55 pm 16:55 Partly Cloudy 34 1 18 -8 51 51 N 8 13 30.42 1030 10 16.09344 0 0
5:15 pm 17:15 Clear 34 1 18 -8 51 51 N 7 11 30.42 1030 10 16.09344 0 0
5:35 pm 17:35 Clear 32 0 18 -8 55 55 N 8 13 30.42 1030 10 16.09344 0 0
5:55 pm 17:55 Clear 32 0 18 -8 55 55 N 6 9 30.42 1030 10 16.09344 0 0
6:15 pm 18:15 Clear 32 0 18 -8 55 55 N 5 7 30.45 1031 10 16.09344 0 0
6:35 pm 18:35 Clear 30 -1 19 -7 64 64 NW 9 15 30.45 1031 10 16.09344 0 0
6:55 pm 18:55 Clear 32 0 19 -7 60 60 Calm 30.45 1031 10 16.09344 0 0
7:15 pm 19:15 Clear 32 0 18 -8 55 55 Calm 30.45 1031 10 16.09344 0 0
7:35 pm 19:35 Clear 30 -1 19 -7 64 64 NW 5 7 30.45 1031 10 16.09344 0 0
7:55 pm 19:55 Clear 28 -2 19 -7 69 69 WNW 5 7 30.45 1031 10 16.09344 0 0
8:15 pm 20:15 Clear 28 -2 19 -7 69 69 WNW 5 7 30.45 1031 10 16.09344 0 0
8:35 pm 20:35 Clear 27 -3 19 -7 74 74 WNW 5 7 30.48 1032 10 16.09344 0 0
8:55 pm 20:55 Clear 28 -2 19 -7 69 69 NW 5 7 30.48 1032 10 16.09344 0 0
9:15 pm 21:15 Clear 28 -2 19 -7 69 69 NW 5 7 30.48 1032 10 16.09344 0 0
9:35 pm 21:35 Clear 30 -1 19 -7 64 64 NW 5 7 30.48 1032 10 16.09344 0 0
9:55 pm 21:55 Clear 30 -1 19 -7 64 64 NNW 3 6 30.48 1032 10 16.09344 0 0
10:15 pm 22:15 Clear 30 -1 19 -7 64 64 Calm 30.48 1032 10 16.09344 0 0
10:35 pm 22:35 Clear 28 -2 19 -7 69 69 Calm 30.48 1032 10 16.09344 0 0
10:55 pm 22:55 Clear 28 -2 19 -7 69 69 Calm 30.48 1032 10 16.09344 0 0
11:15 pm 23:15 Clear 28 -2 19 -7 69 69 Calm 30.48 1032 10 16.09344 0 0
11:35 pm 23:35 Clear 30 -1 19 -7 64 64 NNE 3 6 30.48 1032 10 16.09344 0 0
11:55 pm 23:55 Clear 30 -1 19 -7 64 64 NNE 3 6 30.48 1032 10 16.09344 0 0

Powered by AerisWeather